Regional Weather Roundup
Issued by NWS New Orleans/Baton Rouge, LA

Home | Current Version | Previous Version | Text Only | Print | Product List | Glossary On
Versions: 1 2 3 4 5 6 7 8 9 10 11 12 13 14 15 16 17 18 19 20 21 22 23 24 25 26 27 28 29 30 31 32 33 34 35 36 37 38 39 40 41 42 43 44 45 46 47 48 49 50
000
ASUS44 KLIX 012210
RWRLIX
NEW ORLEANS REGIONAL WEATHER ROUNDUP
NATIONAL WEATHER SERVICE NEW ORLEANS LA
500 PM CDT MON SEP 01 2014

NOTE: "FAIR" INDICATES FEW OR NO CLOUDS BELOW 12,000 FEET WITH NO
      SIGNIFICANT WEATHER AND/OR OBSTRUCTIONS TO VISIBILITY.
      SKY/WX - SKY CONDITION AND SIGNIFICANT WEATHER.
      TMP - AIR TEMPERATURE.     DP    - DEWPOINT TEMPERATURE.
      RH  - RELATIVE HUMIDITY.   PRES  - PRESSURE.
      HI  - HEAT INDEX.          WCI   - WIND CHILL INDEX.

*  THESE STATIONS ARE NOT NWS OR FAA STATIONS AND ARE NOT UNDER
   NWS QUALITY CONTROL.

LAZ038-040-048-061>063-065>067-069-012300-
SOUTHEAST LOUISIANA

CITY           SKY/WX    TMP DP  RH WIND       PRES   REMARKS
N.O. AUDUBON     N/A     86 N/A N/A MISG        N/A
N.O. INTL ARPT PTSUNNY   84  74  71 E6        29.99F
N.O. LAKEFRONT LGT RAIN  79  75  87 SE9       30.00F
N.O. DOWNTOWN*   N/A     82  73  74 E5        30.00F
SLIDELL        PTSUNNY   80  76  87 CALM      30.01R THUNDER
BATON ROUGE    CLOUDY    82  73  74 SE8       29.97F
BOOTHVILLE     PTSUNNY   87  78  74 S13       30.01F HX 100
BELLE CHASSE   PTSUNNY   88  72  58 S14       29.98F
BOGALUSA*        N/A     87  74  66 S6G16     30.02S HX  96
GALLIANO*      NOT AVBL
NEW ROADS*       N/A     82  75  78 E5        29.97F
GONZALES*        N/A     83  77  83 SE3       29.97F
HAMMOND*       PTSUNNY   86  73  66 SE12G21   30.01S
HOUMA*         MOSUNNY   86  75  70 S8        29.99F HX  95
PORT FOURCHON* PTCLDY    88  75  66 S13       30.01F HX  97

$$

MSZ070-080>082-012300-
SOUTHERN MISSISSIPPI

CITY           SKY/WX    TMP DP  RH WIND       PRES   REMARKS
MCCOMB         CLOUDY    83  75  77 E5        30.02R
GULFPORT       PTSUNNY   88  74  63 SE18      30.01S HX  96
BILOXI         PTSUNNY   88  75  65 S12       30.01F HX  97
PASCAGOULA     MOSUNNY   86  76  71 S9        30.02S HX  96
STENNIS ARPT*  MOSUNNY  N/A N/A N/A S16       30.01F

$$

COASTAL OBSERVATIONS
LAKE AND NEARSHORE STATIONS

STATION/POSITION TIME  TEMP    WIND        PRES    WAVE
                       AIR SEA DIR/SP/G            HT/PER
                 (UTC) (F)     (DEG/KT/KT) (MB)    (FT/S)
PASCAGOULA       2200   89     170/  8/ 12 1016.1
WAVELAND YACHT   2200   85     150/ 15/ 18 1015.6
GRAND ISLE       2200   86 85  150/  6/ 13 1016.7
SOUTHWEST PASS   2200   86 91  140/ 12/ 16 1016.5
NEW CANAL        2200   80 82  160/  1/  5 1016.1
SHELL BEACH      2200   79 81  130/ 10/ 13 1016.2

OFFSHORE STATIONS

STATION/POSITION TIME  TEMP    WIND        PRES    WAVE
                       AIR SEA DIR/SP/G            HT/PER
                 (UTC) (F)     (DEG/KT/KT) (MB)    (FT/S)

$$



USA.gov is the U.S. government's official web portal to all federal, state and local government web resources and services.